CW6688 Weather Reports


Display with metric or nautical units.
time (UTC)temp
F
wind
direction
speed
MPH
gust
MPH
rain 1hr
in
rain 24hr
in
rain mn
in
humidity
%
barometer
mb
20200221043329 43 42 0.0 0.0 0.00 0.00 0.00 59 1023.5
20200221042331 43 42 0.0 0.0 0.00 0.00 0.00 59 1023.4
20200221041325 43 42 0.0 0.0 0.00 0.00 0.00 58 1023.5
20200221040326 43 42 0.0 0.0 0.00 0.00 0.00 57 1023.6
20200221035342 44 42 0.0 0.0 0.00 0.00 0.00 56 1023.4
20200221034325 44 42 0.0 0.0 0.00 0.00 0.00 55 1023.3
20200221033331 45 42 0.0 0.0 0.00 0.00 0.00 54 1023.1
20200221032329 45 42 0.0 0.0 0.00 0.00 0.00 54 1023.1
20200221031326 45 40 0.0 0.0 0.00 0.00 0.00 53 1023.1
20200221030329 46 22 0.0 0.0 0.00 0.00 0.00 52 1023.0
20200221025326 46 22 0.0 0.0 0.00 0.00 0.00 51 1023.1
20200221024324 47 22 0.0 0.0 0.00 0.00 0.00 51 1023.1
20200221023330 47 22 0.0 0.0 0.00 0.00 0.00 50 1023.0
20200221022328 48 107 0.0 0.0 0.00 0.00 0.00 49 1023.0
20200221021327 48 109 0.0 0.0 0.00 0.00 0.00 49 1022.9
20200221020328 49 109 0.0 0.0 0.00 0.00 0.00 47 1022.9
20200221015326 50 109 0.0 0.0 0.00 0.00 0.00 46 1022.7
20200221014341 51 98 0.0 0.0 0.00 0.00 0.00 44 1022.7
20200221013343 52 104 0.0 0.0 0.00 0.00 0.00 43 1022.8
20200221012330 53 104 0.0 7.0 0.00 0.00 0.00 41 1022.8
20200221011325 54 99 0.0 0.0 0.00 0.00 0.00 39 1022.7
20200221010328 54 105 0.0 8.0 0.00 0.00 0.00 38 1022.8
20200221005331 55 78 0.0 3.0 0.00 0.00 0.00 37 1022.7
20200221004326 56 107 0.0 4.0 0.00 0.00 0.00 36 1022.9
20200221003329 56 112 1.0 9.0 0.00 0.00 0.00 36 1022.8
20200221002332 56 81 0.0 7.0 0.00 0.00 0.00 35 1022.9
20200221001327 57 91 1.0 7.0 0.00 0.00 0.00 34 1022.9
20200221000331 57 157 1.0 6.0 0.00 0.00 0.00 33 1022.8
20200220235325 57 74 0.0 8.0 0.00 0.00 0.00 33 1022.9
20200220234328 58 102 0.0 1.0 0.00 0.00 0.00 32 1022.9
20200220233341 58 107 0.0 0.0 0.00 0.00 0.00 31 1022.9
20200220232342 58 103 0.0 2.0 0.00 0.00 0.00 31 1022.8
20200220231328 58 96 0.0 4.0 0.00 0.00 0.00 32 1022.7
20200220230332 58 112 0.0 6.0 0.00 0.00 0.00 32 1022.7
20200220225334 58 98 2.0 9.0 0.00 0.00 0.00 31 1022.6
20200220224324 58 92 0.0 0.0 0.00 0.00 0.00 31 1022.7
20200220223325 58 108 0.0 7.0 0.00 0.00 0.00 32 1022.6
20200220222327 58 103 0.0 3.0 0.00 0.00 0.00 32 1022.7
20200220221328 58 87 1.0 5.0 0.00 0.00 0.00 31 1022.7
20200220220332 58 102 0.0 0.0 0.00 0.00 0.00 32 1022.8
20200220215332 57 111 0.0 6.0 0.00 0.00 0.00 30 1022.8
20200220214340 57 100 0.0 4.0 0.00 0.00 0.00 33 1022.9
20200220213330 56 111 6.0 10.0 0.00 0.00 0.00 32 1022.8
20200220212324 56 94 1.0 7.0 0.00 0.00 0.00 33 1022.8
20200220211325 56 94 1.0 7.0 0.00 0.00 0.00 34 1023.0
20200220210334 55 100 0.0 11.0 0.00 0.00 0.00 34 1023.1
20200220205324 55 115 2.0 9.0 0.00 0.00 0.00 33 1023.1
20200220204325 56 129 1.0 10.0 0.00 0.00 0.00 33 1023.2
20200220203326 55 94 3.0 12.0 0.00 0.00 0.00 34 1023.4
20200220202328 54 113 6.0 12.0 0.00 0.00 0.00 33 1023.6
20200220201330 55 128 2.0 10.0 0.00 0.00 0.00 34 1023.7
20200220200324 54 71 3.0 9.0 0.00 0.00 0.00 34 1023.9
20200220195325 54 107 3.0 12.0 0.00 0.00 0.00 34 1023.9
20200220194335 54 140 3.0 11.0 0.00 0.00 0.00 36 1023.7
20200220193329 53 109 4.0 10.0 0.00 0.00 0.00 36 1023.7
20200220192329 52 141 4.0 12.0 0.00 0.00 0.00 37 1023.8
20200220191330 52 98 3.0 10.0 0.00 0.00 0.00 37 1023.8
20200220190339 52 102 2.0 11.0 0.00 0.00 0.00 37 1023.8
20200220185329 52 91 2.0 11.0 0.00 0.00 0.00 37 1023.9
20200220184331 52 101 2.0 10.0 0.00 0.00 0.00 38 1024.0
20200220183325 51 105 3.0 10.0 0.00 0.00 0.00 39 1023.9
20200220182329 50 113 4.0 10.0 0.00 0.00 0.00 39 1023.9
20200220181340 49 30 3.0 11.0 0.00 0.00 0.00 40 1023.9
20200220180323 48 117 2.0 11.0 0.00 0.00 0.00 41 1023.8
20200220175333 48 82 5.0 12.0 0.00 0.00 0.00 41 1023.8
20200220174329 48 101 1.0 9.0 0.00 0.00 0.00 43 1023.9
20200220173327 48 307 0.0 12.0 0.00 0.00 0.00 42 1023.9
20200220172328 47 93 3.0 11.0 0.00 0.00 0.00 42 1023.9
20200220171332 47 108 2.0 16.0 0.00 0.00 0.00 44 1023.9
20200220170330 46 100 1.0 7.0 0.00 0.00 0.00 45 1023.9
20200220165327 45 99 2.0 11.0 0.00 0.00 0.00 45 1023.8
20200220164327 45 121 4.0 16.0 0.00 0.00 0.00 45 1024.0
20200220163328 44 109 2.0 10.0 0.00 0.00 0.00 46 1023.9
20200220162328 44 107 1.0 12.0 0.00 0.00 0.00 46 1023.9
20200220161329 44 111 2.0 12.0 0.00 0.00 0.00 46 1023.8
20200220160343 43 111 3.0 9.0 0.00 0.00 0.00 47 1023.7
20200220155345 43 94 1.0 14.0 0.00 0.00 0.00 47 1023.9
20200220154336 43 109 3.0 12.0 0.00 0.00 0.00 48 1023.8
20200220153326 42 65 2.0 11.0 0.00 0.00 0.00 48 1023.6
20200220152326 42 117 5.0 11.0 0.00 0.00 0.00 49 1023.5
20200220151326 42 91 2.0 10.0 0.00 0.00 0.00 49 1023.6
20200220150328 42 105 1.0 12.0 0.00 0.00 0.00 49 1023.6
20200220145329 42 70 1.0 14.0 0.00 0.00 0.00 48 1023.5
20200220144331 42 94 3.0 13.0 0.00 0.00 0.00 49 1023.6
20200220143326 42 104 0.0 10.0 0.00 0.00 0.00 49 1023.5
20200220142329 42 99 1.0 11.0 0.00 0.00 0.00 49 1023.6
20200220141343 42 120 3.0 14.0 0.00 0.00 0.00 49 1023.5
20200220140331 42 87 2.0 12.0 0.00 0.00 0.00 49 1023.7
20200220135326 42 100 1.0 10.0 0.00 0.00 0.00 49 1023.7
20200220134328 42 101 0.0 9.0 0.00 0.00 0.00 49 1023.7
20200220133329 42 101 2.0 8.0 0.00 0.00 0.00 49 1023.6
20200220132331 42 88 2.0 12.0 0.00 0.00 0.00 49 1023.6
20200220131332 42 77 1.0 15.0 0.00 0.00 0.00 49 1023.6
20200220130331 42 100 2.0 12.0 0.00 0.00 0.00 48 1023.6
20200220125332 42 103 4.0 12.0 0.00 0.00 0.00 48 1023.7
20200220124332 42 112 2.0 9.0 0.00 0.00 0.00 48 1023.6
20200220123331 42 104 1.0 8.0 0.00 0.00 0.00 49 1023.7
20200220122332 42 93 1.0 10.0 0.00 0.00 0.00 48 1023.7
20200220121345 42 119 2.0 12.0 0.00 0.00 0.00 48 1023.7
20200220120325 42 76 2.0 11.0 0.00 0.00 0.00 48 1023.8
20200220115327 43 113 1.0 12.0 0.00 0.00 0.00 47 1023.6
20200220114332 42 104 2.0 10.0 0.00 0.00 0.00 48 1023.6
20200220113333 42 105 2.0 10.0 0.00 0.00 0.00 48 1023.5
20200220112326 43 92 0.0 12.0 0.00 0.00 0.00 48 1023.7
20200220111329 42 88 1.0 10.0 0.00 0.00 0.00 48 1023.8
20200220110332 43 62 1.0 13.0 0.00 0.00 0.00 48 1023.8
20200220105327 43 100 2.0 10.0 0.00 0.00 0.00 47 1023.7
20200220104329 43 101 1.0 13.0 0.00 0.00 0.00 47 1023.9
20200220103331 43 111 1.0 13.0 0.00 0.00 0.00 47 1024.0
20200220102325 43 70 2.0 11.0 0.00 0.00 0.00 46 1023.9
20200220101328 43 65 4.0 11.0 0.00 0.00 0.00 46 1024.0
20200220100344 43 87 0.0 9.0 0.00 0.00 0.00 46 1024.2
20200220095327 43 115 1.0 11.0 0.00 0.00 0.00 46 1024.1
20200220094342 43 111 0.0 12.0 0.00 0.00 0.00 46 1024.1
20200220093334 43 117 0.0 11.0 0.00 0.00 0.00 45 1024.2
20200220092325 43 96 1.0 8.0 0.00 0.00 0.00 45 1024.3
20200220091335 43 89 1.0 12.0 0.00 0.00 0.00 44 1024.2
20200220090325 44 329 0.0 9.0 0.00 0.00 0.00 43 1024.3
20200220085329 43 87 1.0 7.0 0.00 0.00 0.00 43 1024.1
20200220084332 43 90 1.0 9.0 0.00 0.00 0.00 43 1024.0
20200220083332 43 92 2.0 9.0 0.00 0.00 0.00 43 1023.8
20200220082326 43 100 2.0 11.0 0.00 0.00 0.00 43 1023.9
20200220081327 44 113 1.0 7.0 0.00 0.00 0.00 42 1023.9
20200220080329 44 96 1.0 13.0 0.00 0.00 0.00 42 1023.8
20200220075343 44 121 1.0 11.0 0.00 0.00 0.00 42 1023.8
20200220074329 44 98 1.0 9.0 0.00 0.00 0.00 42 1023.7
20200220073331 44 114 1.0 8.0 0.00 0.00 0.00 42 1023.7
20200220072326 44 51 2.0 14.0 0.00 0.00 0.00 41 1023.7
20200220071328 44 107 1.0 8.0 0.00 0.00 0.00 42 1023.8
20200220070330 44 115 1.0 9.0 0.00 0.00 0.00 41 1023.7
20200220065325 44 113 2.0 9.0 0.00 0.00 0.00 41 1023.6
20200220064328 44 107 1.0 12.0 0.00 0.00 0.00 41 1023.4
20200220063329 44 59 2.0 11.0 0.00 0.00 0.00 41 1023.4
20200220062331 44 98 1.0 12.0 0.00 0.00 0.00 41 1023.5
20200220061326 44 49 1.0 13.0 0.00 0.00 0.00 41 1023.5
20200220060342 44 110 2.0 10.0 0.00 0.00 0.00 41 1023.5
20200220055343 44 111 1.0 10.0 0.00 0.00 0.00 42 1023.4
20200220054344 45 105 1.0 9.0 0.00 0.00 0.00 42 1023.4
20200220053329 45 41 1.0 10.0 0.00 0.00 0.00 42 1023.5
20200220052342 45 120 1.0 9.0 0.00 0.00 0.00 42 1023.4
20200220051331 45 102 0.0 8.0 0.00 0.00 0.00 42 1023.5
20200220050338 45 111 2.0 10.0 0.00 0.00 0.00 42 1023.4
20200220045325 45 107 1.0 13.0 0.00 0.00 0.00 42 1023.4
20200220044330 45 82 1.0 11.0 0.00 0.00 0.00 42 1023.4